sat.trackr.live / text

‹ back to catalog

STARLINK-30563

NORAD 58042 · 2023-156Q

PAYLOAD ACTIVE UNKNOWN

§ Identity

Operator
Country
US
Launch date
2023-10-09
Launch site
AFWTR
Launch vehicle
Mass (kg)
RCS (m²)

Purposes: comms

External: N2YO · Heavens-Above · Gunter

§ Orbital elements

Epoch: 2026-09-20T08:13:07.865760Z

Period
93.85 min
Inclination
53.1615°
Eccentricity
0.0000978
Mean motion
15.34389691 rev/d
Perigee alt
462.1 km
Apogee alt
463.4 km
Semi-major
6,840.9 km
B*
4.1337e-5
RAAN
250.1370°
Arg perigee
97.7682°
Mean anomaly
262.3432°
Rev number
16,617

§ Raw data

STARLINK-305631 58042U 23156Q   26263.34245215  .00001020  00000+0  41337-4 0  99952 58042  53.1615 250.1370 0000978  97.7682 262.3432 15.34389691166175

JSON: /api/v1/satellites/58042 · /tle

For live sub-satellite position, see the globe view (requires WebGL).

§ Visibility from observer

Set your observer location to see the next 7 days of passes ≥ 10°. The values pass through the URL so the page stays shareable.

No JS? Fill the form by hand. The geolocation button needs JavaScript.